owner,sensor,date,latitude,longitude,air_temperature,qcFlag 
WAVCIS,ioos:station:WAVCIS:CSI16:1,2009-10-01T00:00:00Z,29.4012,-89.0355,17.1,11111222 
WAVCIS,ioos:station:WAVCIS:CSI16:1,2009-10-01T01:00:00Z,29.4012,-89.0355,16.89,11111222 
WAVCIS,ioos:station:WAVCIS:CSI16:1,2009-10-01T02:00:00Z,29.4012,-89.0355,19.26,11111222 
WAVCIS,ioos:station:WAVCIS:CSI16:1,2009-10-01T03:00:00Z,29.4012,-89.0355,18.89,11111222 
WAVCIS,ioos:station:WAVCIS:CSI16:1,2009-10-01T04:00:00Z,29.4012,-89.0355,18.21,11111222 
WAVCIS,ioos:station:WAVCIS:CSI16:1,2009-10-01T05:00:00Z,29.4012,-89.0355,18.33,11111222 
WAVCIS,ioos:station:WAVCIS:CSI16:1,2009-10-01T06:00:00Z,29.4012,-89.0355,18.85,11111222 
WAVCIS,ioos:station:WAVCIS:CSI16:1,2009-10-01T07:00:00Z,29.4012,-89.0355,18.96,11111222 
WAVCIS,ioos:station:WAVCIS:CSI16:1,2009-10-01T08:00:00Z,29.4012,-89.0355,18.89,11111222 
WAVCIS,ioos:station:WAVCIS:CSI16:1,2009-10-01T09:00:00Z,29.4012,-89.0355,17.96,11111222 
WAVCIS,ioos:station:WAVCIS:CSI16:1,2009-10-01T10:00:00Z,29.4012,-89.0355,18.69,11111222 
WAVCIS,ioos:station:WAVCIS:CSI16:1,2009-10-01T11:00:00Z,29.4012,-89.0355,19.01,11111222 
WAVCIS,ioos:station:WAVCIS:CSI16:1,2009-10-01T12:00:00Z,29.4012,-89.0355,19.02,11111222 
WAVCIS,ioos:station:WAVCIS:CSI16:1,2009-10-01T13:00:00Z,29.4012,-89.0355,19.04,11111222 
WAVCIS,ioos:station:WAVCIS:CSI16:1,2009-10-01T14:00:00Z,29.4012,-89.0355,19.67,11111222 
WAVCIS,ioos:station:WAVCIS:CSI16:1,2009-10-01T15:00:00Z,29.4012,-89.0355,18.88,11111222 
WAVCIS,ioos:station:WAVCIS:CSI16:1,2009-10-01T16:00:00Z,29.4012,-89.0355,18.44,11111222 
WAVCIS,ioos:station:WAVCIS:CSI16:1,2009-10-01T17:00:00Z,29.4012,-89.0355,18.82,11111222 
WAVCIS,ioos:station:WAVCIS:CSI16:1,2009-10-01T18:00:00Z,29.4012,-89.0355,19.3,11111222 
WAVCIS,ioos:station:WAVCIS:CSI16:1,2009-10-01T19:00:00Z,29.4012,-89.0355,19.27,11111222 
WAVCIS,ioos:station:WAVCIS:CSI16:1,2009-10-01T20:00:00Z,29.4012,-89.0355,19.64,11111222 
WAVCIS,ioos:station:WAVCIS:CSI16:1,2009-10-01T21:00:00Z,29.4012,-89.0355,20.86,11111222 
WAVCIS,ioos:station:WAVCIS:CSI16:1,2009-10-01T22:00:00Z,29.4012,-89.0355,20.4,11111222 
WAVCIS,ioos:station:WAVCIS:CSI16:1,2009-10-01T23:00:00Z,29.4012,-89.0355,19.04,11111222 
WAVCIS,ioos:station:WAVCIS:CSI16:1,2009-10-02T00:00:00Z,29.4012,-89.0355,16.74,11111222 
WAVCIS,ioos:station:WAVCIS:CSI16:1,2009-10-02T01:00:00Z,29.4012,-89.0355,17.43,11111222 
WAVCIS,ioos:station:WAVCIS:CSI16:1,2009-10-02T02:00:00Z,29.4012,-89.0355,16.05,11111222 
WAVCIS,ioos:station:WAVCIS:CSI16:1,2009-10-02T03:00:00Z,29.4012,-89.0355,15.01,11111222 
WAVCIS,ioos:station:WAVCIS:CSI16:1,2009-10-02T04:00:00Z,29.4012,-89.0355,13.25,11111222 
WAVCIS,ioos:station:WAVCIS:CSI16:1,2009-10-02T05:00:00Z,29.4012,-89.0355,12.75,11111222 
WAVCIS,ioos:station:WAVCIS:CSI16:1,2009-10-02T06:00:00Z,29.4012,-89.0355,14.03,11111222 
WAVCIS,ioos:station:WAVCIS:CSI16:1,2009-10-02T07:00:00Z,29.4012,-89.0355,15.06,11111222 
WAVCIS,ioos:station:WAVCIS:CSI16:1,2009-10-02T08:00:00Z,29.4012,-89.0355,15.4,11111222 
WAVCIS,ioos:station:WAVCIS:CSI16:1,2009-10-02T09:00:00Z,29.4012,-89.0355,15.49,11111222 
WAVCIS,ioos:station:WAVCIS:CSI16:1,2009-10-02T10:00:00Z,29.4012,-89.0355,15.59,11111222 
WAVCIS,ioos:station:WAVCIS:CSI16:1,2009-10-02T11:00:00Z,29.4012,-89.0355,15.77,11111222 
WAVCIS,ioos:station:WAVCIS:CSI16:1,2009-10-02T12:00:00Z,29.4012,-89.0355,18.01,11111222 
WAVCIS,ioos:station:WAVCIS:CSI16:1,2009-10-02T13:00:00Z,29.4012,-89.0355,10.31,11111222 
WAVCIS,ioos:station:WAVCIS:CSI16:1,2009-10-02T14:00:00Z,29.4012,-89.0355,14.47,11111222 
WAVCIS,ioos:station:WAVCIS:CSI16:1,2009-10-02T15:00:00Z,29.4012,-89.0355,16.81,11111222 
WAVCIS,ioos:station:WAVCIS:CSI16:1,2009-10-02T16:00:00Z,29.4012,-89.0355,16.2,11111222 
WAVCIS,ioos:station:WAVCIS:CSI16:1,2009-10-02T17:00:00Z,29.4012,-89.0355,17.23,11111222 
WAVCIS,ioos:station:WAVCIS:CSI16:1,2009-10-02T18:00:00Z,29.4012,-89.0355,20.3,11111222 
WAVCIS,ioos:station:WAVCIS:CSI16:1,2009-10-02T19:00:00Z,29.4012,-89.0355,19.57,11111222 
WAVCIS,ioos:station:WAVCIS:CSI16:1,2009-10-02T20:00:00Z,29.4012,-89.0355,20.64,11111222 
WAVCIS,ioos:station:WAVCIS:CSI16:1,2009-10-02T21:00:00Z,29.4012,-89.0355,20.88,11111222 
WAVCIS,ioos:station:WAVCIS:CSI16:1,2009-10-02T22:00:00Z,29.4012,-89.0355,19.26,11111222 
WAVCIS,ioos:station:WAVCIS:CSI16:1,2009-10-02T23:00:00Z,29.4012,-89.0355,17.49,11111222 
WAVCIS,ioos:station:WAVCIS:CSI16:1,2009-10-03T00:00:00Z,29.4012,-89.0355,16.57,11111222 
WAVCIS,ioos:station:WAVCIS:CSI16:1,2009-10-03T01:00:00Z,29.4012,-89.0355,15.93,11111222 
WAVCIS,ioos:station:WAVCIS:CSI16:1,2009-10-03T02:00:00Z,29.4012,-89.0355,15.77,11111222 
WAVCIS,ioos:station:WAVCIS:CSI16:1,2009-10-03T03:00:00Z,29.4012,-89.0355,15.04,11111222 
WAVCIS,ioos:station:WAVCIS:CSI16:1,2009-10-03T04:00:00Z,29.4012,-89.0355,17.34,11111222 
WAVCIS,ioos:station:WAVCIS:CSI16:1,2009-10-03T05:00:00Z,29.4012,-89.0355,17.52,11111222 
WAVCIS,ioos:station:WAVCIS:CSI16:1,2009-10-03T06:00:00Z,29.4012,-89.0355,17.9,11111222 
WAVCIS,ioos:station:WAVCIS:CSI16:1,2009-10-03T07:00:00Z,29.4012,-89.0355,18.34,11111222 
WAVCIS,ioos:station:WAVCIS:CSI16:1,2009-10-03T08:00:00Z,29.4012,-89.0355,18.62,11111222 
WAVCIS,ioos:station:WAVCIS:CSI16:1,2009-10-03T09:00:00Z,29.4012,-89.0355,18.2,11111222 
WAVCIS,ioos:station:WAVCIS:CSI16:1,2009-10-03T10:00:00Z,29.4012,-89.0355,17.23,11111222 
WAVCIS,ioos:station:WAVCIS:CSI16:1,2009-10-03T11:00:00Z,29.4012,-89.0355,20.35,11111222 
WAVCIS,ioos:station:WAVCIS:CSI16:1,2009-10-03T12:00:00Z,29.4012,-89.0355,19.93,11111222 
WAVCIS,ioos:station:WAVCIS:CSI16:1,2009-10-03T13:00:00Z,29.4012,-89.0355,21.08,11111222 
WAVCIS,ioos:station:WAVCIS:CSI16:1,2009-10-03T14:00:00Z,29.4012,-89.0355,19.65,11111222 
WAVCIS,ioos:station:WAVCIS:CSI16:1,2009-10-03T15:00:00Z,29.4012,-89.0355,16.6,11111222 
WAVCIS,ioos:station:WAVCIS:CSI16:1,2009-10-03T16:00:00Z,29.4012,-89.0355,15.8,11111222 
WAVCIS,ioos:station:WAVCIS:CSI16:1,2009-10-03T17:00:00Z,29.4012,-89.0355,17.07,11111222 
WAVCIS,ioos:station:WAVCIS:CSI16:1,2009-10-03T18:00:00Z,29.4012,-89.0355,16.34,11111222 
WAVCIS,ioos:station:WAVCIS:CSI16:1,2009-10-03T19:00:00Z,29.4012,-89.0355,15.82,11111222 
WAVCIS,ioos:station:WAVCIS:CSI16:1,2009-10-03T20:00:00Z,29.4012,-89.0355,19.1,11111222 
WAVCIS,ioos:station:WAVCIS:CSI16:1,2009-10-03T21:00:00Z,29.4012,-89.0355,20.43,11111222 
WAVCIS,ioos:station:WAVCIS:CSI16:1,2009-10-03T22:00:00Z,29.4012,-89.0355,19.93,11111222 
WAVCIS,ioos:station:WAVCIS:CSI16:1,2009-10-03T23:00:00Z,29.4012,-89.0355,19.94,11111222 
WAVCIS,ioos:station:WAVCIS:CSI16:1,2009-10-04T00:00:00Z,29.4012,-89.0355,17.61,11111222 
WAVCIS,ioos:station:WAVCIS:CSI16:1,2009-10-04T01:00:00Z,29.4012,-89.0355,16.78,11111222 
WAVCIS,ioos:station:WAVCIS:CSI16:1,2009-10-04T02:00:00Z,29.4012,-89.0355,16.58,11111222 
WAVCIS,ioos:station:WAVCIS:CSI16:1,2009-10-04T03:00:00Z,29.4012,-89.0355,16.76,11111222 
WAVCIS,ioos:station:WAVCIS:CSI16:1,2009-10-04T04:00:00Z,29.4012,-89.0355,16.08,11111222 
WAVCIS,ioos:station:WAVCIS:CSI16:1,2009-10-04T05:00:00Z,29.4012,-89.0355,16.5,11111222 
WAVCIS,ioos:station:WAVCIS:CSI16:1,2009-10-04T06:00:00Z,29.4012,-89.0355,15.89,11111222 
WAVCIS,ioos:station:WAVCIS:CSI16:1,2009-10-04T07:00:00Z,29.4012,-89.0355,16.52,11111222 
WAVCIS,ioos:station:WAVCIS:CSI16:1,2009-10-04T08:00:00Z,29.4012,-89.0355,13.1,11111222 
WAVCIS,ioos:station:WAVCIS:CSI16:1,2009-10-04T09:00:00Z,29.4012,-89.0355,15.21,11111222 
WAVCIS,ioos:station:WAVCIS:CSI16:1,2009-10-04T10:00:00Z,29.4012,-89.0355,14.08,11111222 
WAVCIS,ioos:station:WAVCIS:CSI16:1,2009-10-04T11:00:00Z,29.4012,-89.0355,9.95,11111222 
WAVCIS,ioos:station:WAVCIS:CSI16:1,2009-10-04T12:00:00Z,29.4012,-89.0355,11.31,11111222 
WAVCIS,ioos:station:WAVCIS:CSI16:1,2009-10-04T13:00:00Z,29.4012,-89.0355,12.57,11111222 
WAVCIS,ioos:station:WAVCIS:CSI16:1,2009-10-04T14:00:00Z,29.4012,-89.0355,12.73,11111222 
WAVCIS,ioos:station:WAVCIS:CSI16:1,2009-10-04T15:00:00Z,29.4012,-89.0355,12.04,11111222 
WAVCIS,ioos:station:WAVCIS:CSI16:1,2009-10-04T16:00:00Z,29.4012,-89.0355,12.36,11111222 
WAVCIS,ioos:station:WAVCIS:CSI16:1,2009-10-04T17:00:00Z,29.4012,-89.0355,15.17,11111222 
WAVCIS,ioos:station:WAVCIS:CSI16:1,2009-10-04T18:00:00Z,29.4012,-89.0355,14.76,11111222 
WAVCIS,ioos:station:WAVCIS:CSI16:1,2009-10-04T19:00:00Z,29.4012,-89.0355,13.57,11111222 
WAVCIS,ioos:station:WAVCIS:CSI16:1,2009-10-04T20:00:00Z,29.4012,-89.0355,14.04,11111222 
WAVCIS,ioos:station:WAVCIS:CSI16:1,2009-10-04T21:00:00Z,29.4012,-89.0355,14.61,11111222 
WAVCIS,ioos:station:WAVCIS:CSI16:1,2009-10-04T22:00:00Z,29.4012,-89.0355,14.78,11111222 
WAVCIS,ioos:station:WAVCIS:CSI16:1,2009-10-04T23:00:00Z,29.4012,-89.0355,14.25,11111222 
WAVCIS,ioos:station:WAVCIS:CSI16:1,2009-10-05T00:00:00Z,29.4012,-89.0355,13.23,11111222 
WAVCIS,ioos:station:WAVCIS:CSI16:1,2009-10-05T01:00:00Z,29.4012,-89.0355,13.69,11111222 
WAVCIS,ioos:station:WAVCIS:CSI16:1,2009-10-05T02:00:00Z,29.4012,-89.0355,14.01,11111222 
WAVCIS,ioos:station:WAVCIS:CSI16:1,2009-10-05T03:00:00Z,29.4012,-89.0355,15.08,11111222 
WAVCIS,ioos:station:WAVCIS:CSI16:1,2009-10-05T04:00:00Z,29.4012,-89.0355,15.68,11111222 
WAVCIS,ioos:station:WAVCIS:CSI16:1,2009-10-05T05:00:00Z,29.4012,-89.0355,15.35,11111222 
WAVCIS,ioos:station:WAVCIS:CSI16:1,2009-10-05T06:00:00Z,29.4012,-89.0355,14.89,11111222 
WAVCIS,ioos:station:WAVCIS:CSI16:1,2009-10-05T07:00:00Z,29.4012,-89.0355,13.81,11111222 
WAVCIS,ioos:station:WAVCIS:CSI16:1,2009-10-05T08:00:00Z,29.4012,-89.0355,13.17,11111222 
WAVCIS,ioos:station:WAVCIS:CSI16:1,2009-10-05T09:00:00Z,29.4012,-89.0355,13.39,11111222 
WAVCIS,ioos:station:WAVCIS:CSI16:1,2009-10-05T10:00:00Z,29.4012,-89.0355,11.6,11111222 
WAVCIS,ioos:station:WAVCIS:CSI16:1,2009-10-05T11:00:00Z,29.4012,-89.0355,16.11,11111222 
WAVCIS,ioos:station:WAVCIS:CSI16:1,2009-10-05T12:00:00Z,29.4012,-89.0355,16.65,11111222 
WAVCIS,ioos:station:WAVCIS:CSI16:1,2009-10-05T13:00:00Z,29.4012,-89.0355,16.63,11111222 
WAVCIS,ioos:station:WAVCIS:CSI16:1,2009-10-05T14:00:00Z,29.4012,-89.0355,15.63,11111222 
WAVCIS,ioos:station:WAVCIS:CSI16:1,2009-10-05T15:00:00Z,29.4012,-89.0355,17.11,11111222 
WAVCIS,ioos:station:WAVCIS:CSI16:1,2009-10-05T16:00:00Z,29.4012,-89.0355,18.78,11111222 
WAVCIS,ioos:station:WAVCIS:CSI16:1,2009-10-05T17:00:00Z,29.4012,-89.0355,18.93,11111222 
WAVCIS,ioos:station:WAVCIS:CSI16:1,2009-10-05T18:00:00Z,29.4012,-89.0355,18.08,11111222 
WAVCIS,ioos:station:WAVCIS:CSI16:1,2009-10-05T19:00:00Z,29.4012,-89.0355,16.59,11111222 
WAVCIS,ioos:station:WAVCIS:CSI16:1,2009-10-05T20:00:00Z,29.4012,-89.0355,16.4,11111222 
WAVCIS,ioos:station:WAVCIS:CSI16:1,2009-10-05T21:00:00Z,29.4012,-89.0355,19.09,11111222 
WAVCIS,ioos:station:WAVCIS:CSI16:1,2009-10-05T22:00:00Z,29.4012,-89.0355,18.18,11111222 
WAVCIS,ioos:station:WAVCIS:CSI16:1,2009-10-05T23:00:00Z,29.4012,-89.0355,17.76,11111222 
WAVCIS,ioos:station:WAVCIS:CSI16:1,2009-10-06T00:00:00Z,29.4012,-89.0355,16.81,11111222 
WAVCIS,ioos:station:WAVCIS:CSI16:1,2009-10-06T01:00:00Z,29.4012,-89.0355,17.61,11111222 
WAVCIS,ioos:station:WAVCIS:CSI16:1,2009-10-06T02:00:00Z,29.4012,-89.0355,17.24,11111222 
WAVCIS,ioos:station:WAVCIS:CSI16:1,2009-10-06T03:00:00Z,29.4012,-89.0355,16.23,11111222 
WAVCIS,ioos:station:WAVCIS:CSI16:1,2009-10-06T04:00:00Z,29.4012,-89.0355,18.03,11111222 
WAVCIS,ioos:station:WAVCIS:CSI16:1,2009-10-06T05:00:00Z,29.4012,-89.0355,17.07,11111222 
WAVCIS,ioos:station:WAVCIS:CSI16:1,2009-10-06T06:00:00Z,29.4012,-89.0355,17.14,11111222 
WAVCIS,ioos:station:WAVCIS:CSI16:1,2009-10-06T07:00:00Z,29.4012,-89.0355,16.03,11111222 
WAVCIS,ioos:station:WAVCIS:CSI16:1,2009-10-06T08:00:00Z,29.4012,-89.0355,14.79,11111222 
WAVCIS,ioos:station:WAVCIS:CSI16:1,2009-10-06T09:00:00Z,29.4012,-89.0355,16.92,11111222 
WAVCIS,ioos:station:WAVCIS:CSI16:1,2009-10-06T10:00:00Z,29.4012,-89.0355,17.37,11111222 
WAVCIS,ioos:station:WAVCIS:CSI16:1,2009-10-06T11:00:00Z,29.4012,-89.0355,18.2,11111222 
WAVCIS,ioos:station:WAVCIS:CSI16:1,2009-10-06T12:00:00Z,29.4012,-89.0355,18.02,11111222 
WAVCIS,ioos:station:WAVCIS:CSI16:1,2009-10-08T18:00:00Z,29.4012,-89.0355,13.93,11111222 
WAVCIS,ioos:station:WAVCIS:CSI16:1,2009-10-08T19:00:00Z,29.4012,-89.0355,13.71,11111222 
WAVCIS,ioos:station:WAVCIS:CSI16:1,2009-10-08T20:00:00Z,29.4012,-89.0355,14.53,11111222 
WAVCIS,ioos:station:WAVCIS:CSI16:1,2009-10-08T21:00:00Z,29.4012,-89.0355,22.6,11111222 
WAVCIS,ioos:station:WAVCIS:CSI16:1,2009-10-08T22:00:00Z,29.4012,-89.0355,21.59,11111222 
WAVCIS,ioos:station:WAVCIS:CSI16:1,2009-10-08T23:00:00Z,29.4012,-89.0355,21.08,11111222 
WAVCIS,ioos:station:WAVCIS:CSI16:1,2009-10-09T00:00:00Z,29.4012,-89.0355,20.68,11111222 
WAVCIS,ioos:station:WAVCIS:CSI16:1,2009-10-09T01:00:00Z,29.4012,-89.0355,19.68,11111222 
WAVCIS,ioos:station:WAVCIS:CSI16:1,2009-10-09T02:00:00Z,29.4012,-89.0355,19.96,11111222 
WAVCIS,ioos:station:WAVCIS:CSI16:1,2009-10-09T03:00:00Z,29.4012,-89.0355,19.99,11111222 
WAVCIS,ioos:station:WAVCIS:CSI16:1,2009-10-09T04:00:00Z,29.4012,-89.0355,19.24,11111222 
WAVCIS,ioos:station:WAVCIS:CSI16:1,2009-10-09T05:00:00Z,29.4012,-89.0355,20.58,11111222 
WAVCIS,ioos:station:WAVCIS:CSI16:1,2009-10-09T06:00:00Z,29.4012,-89.0355,20.75,11111222 
WAVCIS,ioos:station:WAVCIS:CSI16:1,2009-10-09T07:00:00Z,29.4012,-89.0355,20.5,11111222 
WAVCIS,ioos:station:WAVCIS:CSI16:1,2009-10-09T08:00:00Z,29.4012,-89.0355,20.82,11111222 
WAVCIS,ioos:station:WAVCIS:CSI16:1,2009-10-09T09:00:00Z,29.4012,-89.0355,21.58,11111222 
WAVCIS,ioos:station:WAVCIS:CSI16:1,2009-10-09T10:00:00Z,29.4012,-89.0355,18.01,11111222 
WAVCIS,ioos:station:WAVCIS:CSI16:1,2009-10-09T11:00:00Z,29.4012,-89.0355,20.69,11111222 
WAVCIS,ioos:station:WAVCIS:CSI16:1,2009-10-09T12:00:00Z,29.4012,-89.0355,19.49,11111222 
WAVCIS,ioos:station:WAVCIS:CSI16:1,2009-10-09T13:00:00Z,29.4012,-89.0355,27.21,11111222 
WAVCIS,ioos:station:WAVCIS:CSI16:1,2009-10-09T14:00:00Z,29.4012,-89.0355,15.96,11111222 
WAVCIS,ioos:station:WAVCIS:CSI16:1,2009-10-09T15:00:00Z,29.4012,-89.0355,16.25,11111222 
WAVCIS,ioos:station:WAVCIS:CSI16:1,2009-10-09T16:00:00Z,29.4012,-89.0355,15.84,11111222 
WAVCIS,ioos:station:WAVCIS:CSI16:1,2009-10-09T17:00:00Z,29.4012,-89.0355,15.35,11111222 
WAVCIS,ioos:station:WAVCIS:CSI16:1,2009-10-09T18:00:00Z,29.4012,-89.0355,15.36,11111222 
WAVCIS,ioos:station:WAVCIS:CSI16:1,2009-10-09T19:00:00Z,29.4012,-89.0355,15.17,11111222 
WAVCIS,ioos:station:WAVCIS:CSI16:1,2009-10-09T20:00:00Z,29.4012,-89.0355,15.33,11111222 
WAVCIS,ioos:station:WAVCIS:CSI16:1,2009-10-09T21:00:00Z,29.4012,-89.0355,16.17,11111222 
WAVCIS,ioos:station:WAVCIS:CSI16:1,2009-10-09T22:00:00Z,29.4012,-89.0355,15.16,11111222 
WAVCIS,ioos:station:WAVCIS:CSI16:1,2009-10-09T23:00:00Z,29.4012,-89.0355,15.03,11111222 
WAVCIS,ioos:station:WAVCIS:CSI16:1,2009-10-10T00:00:00Z,29.4012,-89.0355,14.58,11111222 
WAVCIS,ioos:station:WAVCIS:CSI16:1,2009-10-10T01:00:00Z,29.4012,-89.0355,14.72,11111222 
WAVCIS,ioos:station:WAVCIS:CSI16:1,2009-10-10T02:00:00Z,29.4012,-89.0355,15.22,11111222 
WAVCIS,ioos:station:WAVCIS:CSI16:1,2009-10-10T03:00:00Z,29.4012,-89.0355,11.46,11111222 
WAVCIS,ioos:station:WAVCIS:CSI16:1,2009-10-10T04:00:00Z,29.4012,-89.0355,13.36,11111222 
WAVCIS,ioos:station:WAVCIS:CSI16:1,2009-10-10T05:00:00Z,29.4012,-89.0355,12.06,11111222 
WAVCIS,ioos:station:WAVCIS:CSI16:1,2009-10-10T06:00:00Z,29.4012,-89.0355,15.97,11111222 
WAVCIS,ioos:station:WAVCIS:CSI16:1,2009-10-10T07:00:00Z,29.4012,-89.0355,16.5,11111222 
WAVCIS,ioos:station:WAVCIS:CSI16:1,2009-10-10T08:00:00Z,29.4012,-89.0355,25.05,11111222 
WAVCIS,ioos:station:WAVCIS:CSI16:1,2009-10-10T09:00:00Z,29.4012,-89.0355,20.63,11111222 
WAVCIS,ioos:station:WAVCIS:CSI16:1,2009-10-10T10:00:00Z,29.4012,-89.0355,19.27,11111222 
WAVCIS,ioos:station:WAVCIS:CSI16:1,2009-10-10T11:00:00Z,29.4012,-89.0355,18.86,11111222 
WAVCIS,ioos:station:WAVCIS:CSI16:1,2009-10-10T12:00:00Z,29.4012,-89.0355,18.3,11111222 
WAVCIS,ioos:station:WAVCIS:CSI16:1,2009-10-10T13:00:00Z,29.4012,-89.0355,24.23,11111222 
WAVCIS,ioos:station:WAVCIS:CSI16:1,2009-10-10T14:00:00Z,29.4012,-89.0355,23.67,11111222 
WAVCIS,ioos:station:WAVCIS:CSI16:1,2009-10-10T15:00:00Z,29.4012,-89.0355,21.47,11111222 
WAVCIS,ioos:station:WAVCIS:CSI16:1,2009-10-10T16:00:00Z,29.4012,-89.0355,18.82,11111222 
WAVCIS,ioos:station:WAVCIS:CSI16:1,2009-10-10T17:00:00Z,29.4012,-89.0355,15.41,11111222 
WAVCIS,ioos:station:WAVCIS:CSI16:1,2009-10-10T18:00:00Z,29.4012,-89.0355,16.11,11111222 
WAVCIS,ioos:station:WAVCIS:CSI16:1,2009-10-10T19:00:00Z,29.4012,-89.0355,17.41,11111222 
WAVCIS,ioos:station:WAVCIS:CSI16:1,2009-10-10T20:00:00Z,29.4012,-89.0355,20.04,11111222 
WAVCIS,ioos:station:WAVCIS:CSI16:1,2009-10-10T21:00:00Z,29.4012,-89.0355,20.97,11111222 
WAVCIS,ioos:station:WAVCIS:CSI16:1,2009-10-10T22:00:00Z,29.4012,-89.0355,20.44,11111222 
WAVCIS,ioos:station:WAVCIS:CSI16:1,2009-10-10T23:00:00Z,29.4012,-89.0355,22.41,11111222 
WAVCIS,ioos:station:WAVCIS:CSI16:1,2009-10-11T00:00:00Z,29.4012,-89.0355,22.7,11111222 
WAVCIS,ioos:station:WAVCIS:CSI16:1,2009-10-11T01:00:00Z,29.4012,-89.0355,21.37,11111222 
WAVCIS,ioos:station:WAVCIS:CSI16:1,2009-10-11T02:00:00Z,29.4012,-89.0355,19.85,11111222 
WAVCIS,ioos:station:WAVCIS:CSI16:1,2009-10-11T03:00:00Z,29.4012,-89.0355,20.0,11111222 
WAVCIS,ioos:station:WAVCIS:CSI16:1,2009-10-11T04:00:00Z,29.4012,-89.0355,19.84,11111222 
WAVCIS,ioos:station:WAVCIS:CSI16:1,2009-10-11T05:00:00Z,29.4012,-89.0355,19.5,11111222 
WAVCIS,ioos:station:WAVCIS:CSI16:1,2009-10-11T06:00:00Z,29.4012,-89.0355,19.47,11111222 
WAVCIS,ioos:station:WAVCIS:CSI16:1,2009-10-11T07:00:00Z,29.4012,-89.0355,18.81,11111222 
WAVCIS,ioos:station:WAVCIS:CSI16:1,2009-10-11T08:00:00Z,29.4012,-89.0355,15.59,11111222 
WAVCIS,ioos:station:WAVCIS:CSI16:1,2009-10-11T09:00:00Z,29.4012,-89.0355,16.75,11111222 
WAVCIS,ioos:station:WAVCIS:CSI16:1,2009-10-11T10:00:00Z,29.4012,-89.0355,16.49,11111222 
WAVCIS,ioos:station:WAVCIS:CSI16:1,2009-10-11T11:00:00Z,29.4012,-89.0355,16.3,11111222 
WAVCIS,ioos:station:WAVCIS:CSI16:1,2009-10-11T12:00:00Z,29.4012,-89.0355,17.77,11111222 
WAVCIS,ioos:station:WAVCIS:CSI16:1,2009-10-11T13:00:00Z,29.4012,-89.0355,17.03,11111222 
WAVCIS,ioos:station:WAVCIS:CSI16:1,2009-10-11T14:00:00Z,29.4012,-89.0355,16.92,11111222 
WAVCIS,ioos:station:WAVCIS:CSI16:1,2009-10-11T15:00:00Z,29.4012,-89.0355,20.18,11111222 
WAVCIS,ioos:station:WAVCIS:CSI16:1,2009-10-11T16:00:00Z,29.4012,-89.0355,20.19,11111222 
WAVCIS,ioos:station:WAVCIS:CSI16:1,2009-10-11T17:00:00Z,29.4012,-89.0355,19.53,11111222 
WAVCIS,ioos:station:WAVCIS:CSI16:1,2009-10-11T18:00:00Z,29.4012,-89.0355,17.39,11111222 
WAVCIS,ioos:station:WAVCIS:CSI16:1,2009-10-11T19:00:00Z,29.4012,-89.0355,19.42,11111222 
WAVCIS,ioos:station:WAVCIS:CSI16:1,2009-10-11T20:00:00Z,29.4012,-89.0355,18.87,11111222 
WAVCIS,ioos:station:WAVCIS:CSI16:1,2009-10-11T21:00:00Z,29.4012,-89.0355,22.0,11111222 
WAVCIS,ioos:station:WAVCIS:CSI16:1,2009-10-11T22:00:00Z,29.4012,-89.0355,17.28,11111222 
WAVCIS,ioos:station:WAVCIS:CSI16:1,2009-10-11T23:00:00Z,29.4012,-89.0355,18.78,11111222 
WAVCIS,ioos:station:WAVCIS:CSI16:1,2009-10-12T00:00:00Z,29.4012,-89.0355,16.64,11111222 
WAVCIS,ioos:station:WAVCIS:CSI16:1,2009-10-12T01:00:00Z,29.4012,-89.0355,16.81,11111222 
WAVCIS,ioos:station:WAVCIS:CSI16:1,2009-10-12T02:00:00Z,29.4012,-89.0355,17.36,11111222 
WAVCIS,ioos:station:WAVCIS:CSI16:1,2009-10-12T03:00:00Z,29.4012,-89.0355,18.1,11111222 
WAVCIS,ioos:station:WAVCIS:CSI16:1,2009-10-12T04:00:00Z,29.4012,-89.0355,17.62,11111222 
WAVCIS,ioos:station:WAVCIS:CSI16:1,2009-10-12T05:00:00Z,29.4012,-89.0355,16.87,11111222 
WAVCIS,ioos:station:WAVCIS:CSI16:1,2009-10-12T06:00:00Z,29.4012,-89.0355,16.12,11111222 
WAVCIS,ioos:station:WAVCIS:CSI16:1,2009-10-12T07:00:00Z,29.4012,-89.0355,17.05,11111222 
WAVCIS,ioos:station:WAVCIS:CSI16:1,2009-10-12T08:00:00Z,29.4012,-89.0355,15.97,11111222 
WAVCIS,ioos:station:WAVCIS:CSI16:1,2009-10-12T09:00:00Z,29.4012,-89.0355,26.35,11111222 
WAVCIS,ioos:station:WAVCIS:CSI16:1,2009-10-12T10:00:00Z,29.4012,-89.0355,23.84,11111222 
WAVCIS,ioos:station:WAVCIS:CSI16:1,2009-10-12T11:00:00Z,29.4012,-89.0355,23.38,11111222 
WAVCIS,ioos:station:WAVCIS:CSI16:1,2009-10-12T12:00:00Z,29.4012,-89.0355,23.95,11111222 
WAVCIS,ioos:station:WAVCIS:CSI16:1,2009-10-12T13:00:00Z,29.4012,-89.0355,25.65,11111222 
WAVCIS,ioos:station:WAVCIS:CSI16:1,2009-10-12T14:00:00Z,29.4012,-89.0355,27.73,11111222 
WAVCIS,ioos:station:WAVCIS:CSI16:1,2009-10-12T15:00:00Z,29.4012,-89.0355,28.4,11111222 
WAVCIS,ioos:station:WAVCIS:CSI16:1,2009-10-12T16:00:00Z,29.4012,-89.0355,26.35,11111222 
WAVCIS,ioos:station:WAVCIS:CSI16:1,2009-10-12T17:00:00Z,29.4012,-89.0355,27.14,11111222 
WAVCIS,ioos:station:WAVCIS:CSI16:1,2009-10-12T18:00:00Z,29.4012,-89.0355,24.15,11111222 
WAVCIS,ioos:station:WAVCIS:CSI16:1,2009-10-12T19:00:00Z,29.4012,-89.0355,23.8,11111222 
WAVCIS,ioos:station:WAVCIS:CSI16:1,2009-10-12T20:00:00Z,29.4012,-89.0355,23.63,11111222 
WAVCIS,ioos:station:WAVCIS:CSI16:1,2009-10-12T21:00:00Z,29.4012,-89.0355,24.59,11111222 
WAVCIS,ioos:station:WAVCIS:CSI16:1,2009-10-12T22:00:00Z,29.4012,-89.0355,22.86,11111222 
WAVCIS,ioos:station:WAVCIS:CSI16:1,2009-10-12T23:00:00Z,29.4012,-89.0355,23.5,11111222 
WAVCIS,ioos:station:WAVCIS:CSI16:1,2009-10-13T00:00:00Z,29.4012,-89.0355,24.61,11111222 
WAVCIS,ioos:station:WAVCIS:CSI16:1,2009-10-13T01:00:00Z,29.4012,-89.0355,24.87,11111222 
WAVCIS,ioos:station:WAVCIS:CSI16:1,2009-10-13T02:00:00Z,29.4012,-89.0355,24.6,11111222 
WAVCIS,ioos:station:WAVCIS:CSI16:1,2009-10-13T03:00:00Z,29.4012,-89.0355,26.46,11111222 
WAVCIS,ioos:station:WAVCIS:CSI16:1,2009-10-13T04:00:00Z,29.4012,-89.0355,21.79,11111222 
WAVCIS,ioos:station:WAVCIS:CSI16:1,2009-10-13T05:00:00Z,29.4012,-89.0355,22.53,11111222 
WAVCIS,ioos:station:WAVCIS:CSI16:1,2009-10-13T06:00:00Z,29.4012,-89.0355,21.92,11111222 
WAVCIS,ioos:station:WAVCIS:CSI16:1,2009-10-13T07:00:00Z,29.4012,-89.0355,24.34,11111222 
WAVCIS,ioos:station:WAVCIS:CSI16:1,2009-10-13T08:00:00Z,29.4012,-89.0355,23.66,11111222 
WAVCIS,ioos:station:WAVCIS:CSI16:1,2009-10-13T09:00:00Z,29.4012,-89.0355,22.98,11111222 
WAVCIS,ioos:station:WAVCIS:CSI16:1,2009-10-13T10:00:00Z,29.4012,-89.0355,22.35,11111222 
WAVCIS,ioos:station:WAVCIS:CSI16:1,2009-10-13T11:00:00Z,29.4012,-89.0355,22.36,11111222 
WAVCIS,ioos:station:WAVCIS:CSI16:1,2009-10-13T12:00:00Z,29.4012,-89.0355,29.37,11111222 
WAVCIS,ioos:station:WAVCIS:CSI16:1,2009-10-14T14:00:00Z,29.4012,-89.0355,17.1,11111222 
WAVCIS,ioos:station:WAVCIS:CSI16:1,2009-10-14T15:00:00Z,29.4012,-89.0355,18.36,11111222 
WAVCIS,ioos:station:WAVCIS:CSI16:1,2009-10-14T16:00:00Z,29.4012,-89.0355,12.59,11111222 
WAVCIS,ioos:station:WAVCIS:CSI16:1,2009-10-14T17:00:00Z,29.4012,-89.0355,14.44,11111222 
WAVCIS,ioos:station:WAVCIS:CSI16:1,2009-10-14T18:00:00Z,29.4012,-89.0355,17.79,11111222 
WAVCIS,ioos:station:WAVCIS:CSI16:1,2009-10-14T19:00:00Z,29.4012,-89.0355,19.63,11111222 
WAVCIS,ioos:station:WAVCIS:CSI16:1,2009-10-14T20:00:00Z,29.4012,-89.0355,18.96,11111222 
WAVCIS,ioos:station:WAVCIS:CSI16:1,2009-10-14T21:00:00Z,29.4012,-89.0355,18.5,11111222 
WAVCIS,ioos:station:WAVCIS:CSI16:1,2009-10-14T22:00:00Z,29.4012,-89.0355,18.84,11111222 
WAVCIS,ioos:station:WAVCIS:CSI16:1,2009-10-14T23:00:00Z,29.4012,-89.0355,15.34,11111222 
WAVCIS,ioos:station:WAVCIS:CSI16:1,2009-10-15T00:00:00Z,29.4012,-89.0355,13.67,11111222 
WAVCIS,ioos:station:WAVCIS:CSI16:1,2009-10-15T01:00:00Z,29.4012,-89.0355,14.06,11111222 
WAVCIS,ioos:station:WAVCIS:CSI16:1,2009-10-15T02:00:00Z,29.4012,-89.0355,13.92,11111222 
WAVCIS,ioos:station:WAVCIS:CSI16:1,2009-10-19T14:00:00Z,29.4012,-89.0355,41.25,11111222 
WAVCIS,ioos:station:WAVCIS:CSI16:1,2009-10-19T15:00:00Z,29.4012,-89.0355,39.9,11111222 
WAVCIS,ioos:station:WAVCIS:CSI16:1,2009-10-19T16:00:00Z,29.4012,-89.0355,40.0,11111222 
WAVCIS,ioos:station:WAVCIS:CSI16:1,2009-10-19T17:00:00Z,29.4012,-89.0355,40.53,11111222 
WAVCIS,ioos:station:WAVCIS:CSI16:1,2009-10-19T18:00:00Z,29.4012,-89.0355,39.9,11111222 
WAVCIS,ioos:station:WAVCIS:CSI16:1,2009-10-19T19:00:00Z,29.4012,-89.0355,42.48,11133222 
WAVCIS,ioos:station:WAVCIS:CSI16:1,2009-10-19T20:00:00Z,29.4012,-89.0355,42.04,11133222 
WAVCIS,ioos:station:WAVCIS:CSI16:1,2009-10-19T21:00:00Z,29.4012,-89.0355,43.19,11133222 